| time (UTC) | temp C | wind direction | speed KPH | gust KPH | rain 1hr cm | rain 24hr cm | rain mn cm | humidity % | barometer mb |
| 20260506061508 | 7 | 53 | 0.0 | 3.2 | 0.00 | 0.00 | 0.00 | 100 | 1006.8 |
| 20260506044636 | 8 | 72 | 1.6 | 6.4 | 0.00 | 0.00 | 0.00 | 100 | 1007.9 |
| 20260506043037 | 8 | 16 | 1.6 | 6.4 | 0.00 | 0.00 | 0.00 | 100 | 1008.2 |
| 20260506041533 | 9 | 355 | 0.0 | 4.8 | 0.00 | 0.00 | 0.00 | 100 | 1008.1 |
| 20260506040029 | 9 | 92 | 3.2 | 11.3 | 0.00 | 0.00 | 0.00 | 100 | 1007.3 |
| 20260506034544 | 9 | 34 | 1.6 | 4.8 | 0.00 | 0.00 | 0.00 | 100 | 1007.4 |
| 20260506033019 | 9 | 9 | 1.6 | 4.8 | 0.00 | 0.00 | 0.00 | 100 | 1007.7 |
| 20260506031516 | 9 | 349 | 1.6 | 4.8 | 0.00 | 0.00 | 0.00 | 100 | 1007.9 |
| 20260506030010 | 9 | 355 | 1.6 | 4.8 | 0.00 | 0.00 | 0.00 | 100 | 1007.9 |
| 20260506024506 | 9 | 158 | 0.0 | 3.2 | 0.00 | 0.00 | 0.00 | 100 | 1007.6 |
| 20260506023002 | 9 | 160 | 0.0 | 3.2 | 0.00 | 0.00 | 0.00 | 100 | 1007.8 |
| 20260506021558 | 9 | 159 | 0.0 | 1.6 | 0.00 | 0.00 | 0.00 | 100 | 1007.5 |
| 20260506020053 | 9 | 159 | 0.0 | 1.6 | 0.00 | 0.00 | 0.00 | 100 | 1007.2 |
| 20260506014548 | 9 | 159 | 0.0 | 1.6 | 0.00 | 0.00 | 0.00 | 100 | 1007.5 |
| 20260506013044 | 9 | 159 | 0.0 | 3.2 | 0.00 | 0.00 | 0.00 | 100 | 1007.3 |
| 20260506011540 | 9 | 161 | 0.0 | 4.8 | 0.00 | 0.00 | 0.00 | 100 | 1007.3 |
| 20260506010043 | 9 | 235 | 1.6 | 4.8 | 0.00 | 0.00 | 0.00 | 100 | 1007.7 |
| 20260506004551 | 8 | 277 | 0.0 | 3.2 | 0.00 | 0.00 | 0.00 | 100 | 1007.7 |
| 20260506003038 | 9 | 319 | 0.0 | 6.4 | 0.00 | 0.00 | 0.00 | 100 | 1007.9 |
| 20260506001523 | 9 | 76 | 0.0 | 3.2 | 0.00 | 0.00 | 0.00 | 100 | 1007.5 |
| 20260506000019 | 9 | 11 | 0.0 | 6.4 | 0.00 | 0.00 | 0.00 | 100 | 1007.5 |
| 20260505234524 | 9 | 314 | 0.0 | 3.2 | 0.00 | 0.00 | 0.00 | 100 | 1008.0 |
| 20260505233010 | 9 | 317 | 1.6 | 8.0 | 0.00 | 0.00 | 0.00 | 100 | 1007.8 |
| 20260505231510 | 9 | 296 | 1.6 | 4.8 | 0.00 | 0.00 | 0.00 | 100 | 1007.6 |
| 20260505230105 | 9 | 289 | 0.0 | 4.8 | 0.00 | 0.00 | 0.00 | 100 | 1007.5 |
| 20260505224557 | 9 | 340 | 1.6 | 4.8 | 0.00 | 0.00 | 0.00 | 100 | 1007.4 |
| 20260505223052 | 10 | 336 | 1.6 | 4.8 | 0.00 | 0.00 | 0.00 | 100 | 1007.5 |
| 20260505221549 | 10 | 267 | 0.0 | 6.4 | 0.00 | 0.00 | 0.00 | 100 | 1007.5 |
| 20260505220057 | 10 | 340 | 0.0 | 8.0 | 0.00 | 0.00 | 0.00 | 100 | 1007.1 |
| 20260505214541 | 10 | 308 | 6.4 | 16.1 | 0.00 | 0.00 | 0.00 | 100 | 1007.5 |
| 20260505213034 | 10 | 344 | 3.2 | 12.9 | 0.00 | 0.00 | 0.00 | 100 | 1007.3 |
| 20260505211530 | 10 | 40 | 6.4 | 22.5 | 0.00 | 0.00 | 0.00 | 100 | 1006.9 |
| 20260505210025 | 12 | 348 | 8.0 | 17.7 | 0.00 | 0.00 | 0.00 | 100 | 1006.7 |
| 20260505204520 | 12 | 5 | 3.2 | 9.7 | 0.00 | 0.00 | 0.00 | 100 | 1006.8 |
| 20260505203017 | 12 | 329 | 3.2 | 9.7 | 0.00 | 0.00 | 0.00 | 100 | 1006.5 |
| 20260505201513 | 13 | 348 | 8.0 | 19.3 | 0.00 | 0.00 | 0.00 | 15 | 1006.5 |
| 20260505200008 | 14 | 346 | 4.8 | 16.1 | 0.00 | 0.00 | 0.00 | 32 | 1006.4 |
| 20260505194509 | 15 | 355 | 9.7 | 24.1 | 0.00 | 0.00 | 0.00 | 31 | 1006.1 |
| 20260505193005 | 15 | 338 | 3.2 | 19.3 | 0.00 | 0.00 | 0.00 | 30 | 1006.1 |
| 20260505191501 | 15 | 293 | 6.4 | 14.5 | 0.00 | 0.00 | 0.00 | 29 | 1006.3 |
| 20260505184604 | 15 | 325 | 8.0 | 19.3 | 0.00 | 0.00 | 0.00 | 31 | 1006.3 |
| 20260505183058 | 15 | 323 | 6.4 | 22.5 | 0.00 | 0.00 | 0.00 | 32 | 1006.3 |
| 20260505181559 | 15 | 14 | 6.4 | 22.5 | 0.00 | 0.00 | 0.00 | 33 | 1006.3 |
| 20260505180058 | 16 | 331 | 8.0 | 27.4 | 0.00 | 0.00 | 0.00 | 38 | 1006.1 |
| 20260505174607 | 16 | 5 | 9.7 | 30.6 | 0.00 | 0.00 | 0.00 | 44 | 1005.8 |
| 20260505173046 | 17 | 351 | 14.5 | 30.6 | 0.00 | 0.00 | 0.00 | 52 | 1005.4 |
| 20260505171543 | 17 | 355 | 14.5 | 33.8 | 0.00 | 0.00 | 0.00 | 54 | 1005.2 |
| 20260505170141 | 18 | 344 | 16.1 | 33.8 | 0.00 | 0.00 | 0.00 | 56 | 1005.0 |
| 20260505164541 | 18 | 355 | 8.0 | 16.1 | 0.00 | 0.00 | 0.00 | 54 | 1004.9 |
| 20260505163043 | 18 | 350 | 9.7 | 22.5 | 0.00 | 0.00 | 0.00 | 56 | 1005.1 |
| 20260505161542 | 20 | 300 | 11.3 | 32.2 | 0.00 | 0.00 | 0.00 | 55 | 1004.5 |
| 20260505153045 | 18 | 306 | 6.4 | 19.3 | 0.00 | 0.00 | 0.00 | 52 | 1005.1 |
| 20260505151534 | 18 | 302 | 9.7 | 24.1 | 0.00 | 0.00 | 0.00 | 53 | 1004.9 |
| 20260505124516 | 18 | 298 | 14.5 | 22.5 | 0.00 | 0.00 | 0.00 | 54 | 1003.1 |
| 20260505123012 | 18 | 295 | 9.7 | 22.5 | 0.00 | 0.00 | 0.00 | 53 | 1002.9 |
| 20260505121514 | 18 | 301 | 9.7 | 20.9 | 0.00 | 0.00 | 0.00 | 53 | 1003.1 |
| 20260505120011 | 18 | 294 | 8.0 | 24.1 | 0.00 | 0.00 | 0.00 | 53 | 1003.0 |
| 20260505114510 | 18 | 300 | 6.4 | 16.1 | 0.00 | 0.00 | 0.00 | 53 | 1002.9 |
| 20260505113010 | 17 | 292 | 9.7 | 24.1 | 0.00 | 0.00 | 0.00 | 53 | 1002.6 |
| 20260505111509 | 18 | 288 | 9.7 | 24.1 | 0.00 | 0.00 | 0.00 | 53 | 1002.4 |
| 20260505101505 | 17 | 252 | 6.4 | 14.5 | 0.00 | 0.00 | 0.00 | 53 | 1001.6 |
| 20260505100005 | 17 | 247 | 6.4 | 19.3 | 0.00 | 0.00 | 0.00 | 54 | 1001.5 |
| 20260505094503 | 17 | 287 | 6.4 | 19.3 | 0.00 | 0.00 | 0.00 | 53 | 1001.4 |
| 20260505093003 | 17 | 295 | 9.7 | 22.5 | 0.00 | 0.00 | 0.00 | 53 | 1001.2 |
| 20260505091503 | 17 | 246 | 8.0 | 19.3 | 0.00 | 0.00 | 0.00 | 53 | 1001.2 |
| 20260505090001 | 17 | 295 | 8.0 | 25.7 | 0.00 | 0.00 | 0.00 | 52 | 1001.4 |
| 20260505084601 | 17 | 271 | 9.7 | 19.3 | 0.00 | 0.00 | 0.00 | 52 | 1001.3 |
| 20260505083117 | 17 | 215 | 6.4 | 25.7 | 0.00 | 0.00 | 0.00 | 52 | 1001.2 |
| 20260505081559 | 17 | 235 | 8.0 | 20.9 | 0.00 | 0.00 | 0.00 | 51 | 1001.0 |
| 20260505080058 | 17 | 290 | 6.4 | 24.1 | 0.00 | 0.00 | 0.00 | 51 | 1001.2 |
| 20260505074558 | 17 | 256 | 8.0 | 19.3 | 0.00 | 0.00 | 0.00 | 50 | 1001.0 |
| 20260505073105 | 17 | 259 | 9.7 | 22.5 | 0.00 | 0.00 | 0.00 | 50 | 1000.8 |
| 20260505071556 | 17 | 303 | 6.4 | 19.3 | 0.00 | 0.00 | 0.00 | 50 | 1001.1 |